Orbital Elements at Epoch 2459200.5 (2020-Dec-17.0) TDB
Reference: JPL 22 (heliocentric ecliptic J2000)
Element | Value | Uncertainty (1-sigma) | Units |
e | .1951230472356949 | 5.2259e-08 | |
a | 2.395240298315987 | 9.3798e-09 | au |
q | 1.927873712446837 | 1.2293e-07 | au |
i | 1.916834604725306 | 4.6295e-06 | deg |
node | 28.410573026601 | 0.00010258 | deg |
peri | 352.2430124229901 | 0.00010303 | deg |
M | 255.6353993165773 | 1.2986e-05 | deg |
tp | 2459593.029929712852 (2022-Jan-13.52992971) | 5.0459e-05 | TDB |
period | 1354.010591438716 3.71 | 7.9535e-06 2.178e-08 | d yr |
n | .2658767976234801 | 1.5618e-09 | deg/d |
Q | 2.862606884185137 | 1.121e-08 | au |
|
| | Orbit Determination Parameters
Additional Information
|